Location: Ripley
(48.3812°N, 115.4473°W)
Time: 17:48:49
(UTC+00:00)

RS-15 - Pass Details

Date: 06 July 2022
Orbit: 1881 x 2163 km, 64.8° (Epoch: 11 August)

Event Time Altitude Azimuth Distance (km) Brightness Sun altitude
Rises 05:14:04 0° 316° (NW) 5,693 12.5 -11.2°
Reaches altitude 10° 05:17:37 10° 320° (NW) 4,692 11.6 -11.5°
Maximum altitude 05:30:01 68° 43° (NE) 2,278 8.4 -12.6°
Enters shadow 05:41:35 11° 126° (SE) 4,444 9.3 -13.6°
